Total_Precipitation_Accumulation
0.00 0.01 0.03 0.10 0.24 0.32 0.27 0.21 0.22 0.29 0.27 0.14 0.01 0.00 0.01 0.00 0.00 0.00 0.00 0.00 0.00 0.00 0.00 0.00 0.00 0.00 0.00 0.00 0.00 0.00 0.00 0.00 0.00 0.00 0.00 0.00 0.00 0.00 0.00 0.00 0.00 0.00 0.00
0.00 0.01 0.03 0.07 0.11 0.21 0.30 0.22 0.17 0.18 0.23 0.22 0.10 0.15 0.07 0.01 0.00 0.00 0.00 0.00 0.00 0.00 0.00 0.00 0.00 0.00 0.00 0.00 0.00 0.00 0.00 0.00 0.00 0.00 0.00 0.00 0.00 0.00 0.00 0.00 0.00 0.00 0.00
0.00 0.00 0.04 0.07 0.09 0.17 0.19 0.28 0.14 0.13 0.20 0.31 0.20 0.15 0.10 0.04 0.00 0.00 0.00 0.00 0.00 0.00 0.00 0.00 0.00 0.00 0.00 0.00 0.00 0.00 0.00 0.00 0.00 0.00 0.00 0.00 0.00 0.00 0.00 0.00 0.00 0.00 0.00
0.00 0.00 0.01 0.08 0.10 0.09 0.17 0.21 0.22 0.17 0.15 0.22 0.20 0.13 0.11 0.09 0.03 0.01 0.00 0.00 0.00 0.00 0.00 0.00 0.00 0.00 0.00 0.00 0.00 0.00 0.00 0.00 0.00 0.00 0.00 0.00 0.00 0.00 0.00 0.00 0.00 0.00 0.00
0.00 0.00 0.00 0.04 0.11 0.14 0.14 0.19 0.23 0.15 0.14 0.20 0.24 0.17 0.16 0.17 0.08 0.02 0.01 0.00 0.01 0.00 0.00 0.00 0.00 0.00 0.00 0.00 0.00 0.00 0.00 0.00 0.00 0.00 0.00 0.00 0.00 0.00 0.00 0.00 0.00 0.00 0.00
0.00 0.00 0.00 0.04 0.11 0.24 0.10 0.19 0.17 0.16 0.08 0.10 0.35 0.17 0.15 0.14 0.14 0.06 0.02 0.01 0.01 0.01 0.00 0.00 0.00 0.00 0.00 0.00 0.00 0.00 0.00 0.00 0.00 0.00 0.00 0.00 0.00 0.00 0.00 0.00 0.00 0.00 0.00
0.00 0.00 0.00 0.01 0.05 0.21 0.25 0.09 0.20 0.12 0.06 0.05 0.16 0.24 0.09 0.08 0.18 0.21 0.05 0.01 0.01 0.01 0.00 0.00 0.00 0.00 0.00 0.00 0.00 0.00 0.00 0.00 0.00 0.00 0.00 0.00 0.00 0.00 0.00 0.00 0.00 0.00 0.00
0.00 0.00 0.00 0.00 0.02 0.08 0.46 0.07 0.16 0.11 0.05 0.04 0.07 0.13 0.08 0.06 0.11 0.16 0.11 0.02 0.02 0.01 0.00 0.00 0.00 0.00 0.00 0.00 0.00 0.00 0.00 0.00 0.00 0.00 0.00 0.00 0.00 0.00 0.00 0.00 0.00 0.00 0.00
0.00 0.00 0.00 0.00 0.00 0.02 0.28 0.25 0.05 0.20 0.05 0.03 0.07 0.08 0.07 0.04 0.06 0.09 0.07 0.05 0.02 0.01 0.01 0.00 0.00 0.00 0.00 0.00 0.00 0.00 0.00 0.00 0.00 0.00 0.00 0.00 0.00 0.00 0.00 0.00 0.00 0.00 0.00
0.00 0.00 0.00 0.00 0.00 0.01 0.06 0.29 0.09 0.09 0.06 0.01 0.01 0.02 0.02 0.01 0.03 0.09 0.09 0.04 0.02 0.01 0.02 0.00 0.00 0.00 0.00 0.00 0.00 0.00 0.00 0.00 0.00 0.00 0.00 0.00 0.00 0.00 0.00 0.00 0.00 0.00 0.00
0.00 0.00 0.00 0.00 0.00 0.03 0.09 0.11 0.08 0.05 0.02 0.01 0.00 0.00 0.01 0.00 0.01 0.03 0.07 0.05 0.03 0.03 0.02 0.01 0.00 0.00 0.00 0.00 0.00 0.00 0.00 0.00 0.00 0.00 0.00 0.00 0.00 0.00 0.00 0.00 0.00 0.00 0.00
0.00 0.00 0.00 0.00 0.00 0.02 0.05 0.07 0.05 0.01 0.01 0.01 0.00 0.00 0.00 0.00 0.00 0.01 0.02 0.07 0.08 0.04 0.06 0.01 0.00 0.00 0.00 0.00 0.00 0.00 0.00 0.00 0.00 0.00 0.00 0.00 0.00 0.00 0.00 0.00 0.00 0.00 0.00
0.01 0.00 0.00 0.00 0.00 0.02 0.05 0.04 0.01 0.01 0.00 0.01 0.01 0.01 0.00 0.00 0.00 0.00 0.01 0.02 0.14 0.12 0.06 0.06 0.00 0.00 0.00 0.00 0.00 0.00 0.00 0.00 0.00 0.00 0.00 0.00 0.00 0.00 0.00 0.00 0.00 0.00 0.00
0.01 0.01 0.00 0.00 0.03 0.08 0.07 0.03 0.01 0.01 0.01 0.01 0.01 0.00 0.00 0.01 0.01 0.01 0.01 0.01 0.05 0.14 0.10 0.05 0.03 0.01 0.00 0.00 0.00 0.00 0.00 0.00 0.00 0.00 0.00 0.00 0.00 0.00 0.00 0.00 0.00 0.00 0.00
0.01 0.01 0.00 0.00 0.00 0.03 0.14 0.14 0.05 0.02 0.01 0.00 0.00 0.01 0.01 0.01 0.00 0.00 0.00 0.00 0.02 0.04 0.09 0.10 0.04 0.01 0.00 0.00 0.00 0.00 0.00 0.00 0.00 0.00 0.00 0.00 0.00 0.00 0.00 0.00 0.00 0.00 0.00
0.03 0.02 0.02 0.01 0.00 0.00 0.01 0.06 0.09 0.04 0.02 0.00 0.01 0.00 0.00 0.00 0.00 0.00 0.00 0.00 0.00 0.01 0.04 0.06 0.06 0.02 0.00 0.00 0.00 0.00 0.00 0.00 0.00 0.00 0.00 0.00 0.00 0.00 0.00 0.00 0.00 0.00 0.00
0.08 0.04 0.03 0.02 0.01 0.00 0.00 0.03 0.05 0.05 0.08 0.06 0.02 0.02 0.01 0.01 0.01 0.00 0.00 0.00 0.00 0.00 0.02 0.05 0.04 0.02 0.00 0.00 0.00 0.00 0.00 0.00 0.00 0.00 0.00 0.00 0.00 0.00 0.00 0.00 0.00 0.00 0.00
0.07 0.03 0.02 0.02 0.03 0.03 0.01 0.04 0.04 0.03 0.04 0.03 0.03 0.03 0.01 0.00 0.01 0.01 0.00 0.00 0.00 0.01 0.00 0.03 0.04 0.03 0.01 0.00 0.00 0.00 0.00 0.00 0.00 0.00 0.00 0.00 0.00 0.00 0.00 0.00 0.00 0.00 0.00
0.07 0.02 0.01 0.01 0.02 0.04 0.05 0.06 0.10 0.09 0.04 0.01 0.01 0.00 0.00 0.00 0.01 0.00 0.00 0.00 0.00 0.00 0.01 0.00 0.01 0.01 0.01 0.00 0.00 0.00 0.00 0.00 0.00 0.00 0.00 0.00 0.00 0.00 0.00 0.00 0.00 0.00 0.00
0.04 0.01 0.01 0.01 0.01 0.03 0.04 0.08 0.11 0.10 0.07 0.03 0.01 0.00 0.00 0.00 0.01 0.01 0.00 0.00 0.00 0.00 0.01 0.08 0.04 0.03 0.01 0.00 0.00 0.00 0.00 0.00 0.00 0.00 0.00 0.00 0.00 0.00 0.00 0.00 0.00 0.00 0.00
0.00 0.00 0.00 0.00 0.00 0.02 0.03 0.05 0.04 0.04 0.05 0.04 0.02 0.00 0.00 0.00 0.01 0.01 0.00 0.00 0.00 0.00 0.01 0.05 0.13 0.09 0.03 0.01 0.00 0.00 0.00 0.00 0.00 0.00 0.00 0.00 0.00 0.00 0.00 0.00 0.00 0.00 0.00
0.00 0.00 0.00 0.00 0.01 0.01 0.03 0.04 0.04 0.02 0.02 0.01 0.01 0.01 0.00 0.00 0.00 0.00 0.01 0.01 0.06 0.01 0.00 0.03 0.07 0.10 0.09 0.06 0.02 0.00 0.00 0.00 0.00 0.00 0.00 0.00 0.00 0.00 0.00 0.00 0.00 0.01 0.00
0.00 0.00 0.00 0.00 0.00 0.01 0.02 0.04 0.07 0.05 0.04 0.02 0.02 0.01 0.01 0.03 0.02 0.04 0.08 0.03 0.05 0.07 0.02 0.03 0.06 0.09 0.06 0.08 0.08 0.03 0.00 0.00 0.00 0.00 0.00 0.00 0.01 0.01 0.01 0.01 0.01 0.02 0.01
0.01 0.00 0.00 0.00 0.00 0.01 0.05 0.05 0.14 0.08 0.07 0.03 0.03 0.02 0.02 0.05 0.08 0.10 0.15 0.17 0.08 0.03 0.06 0.03 0.03 0.06 0.11 0.06 0.06 0.06 0.03 0.01 0.01 0.01 0.00 0.01 0.02 0.02 0.03 0.04 0.04 0.02 0.00
0.01 0.00 0.00 0.00 0.00 0.00 0.02 0.02 0.19 0.20 0.16 0.08 0.05 0.07 0.06 0.06 0.10 0.14 0.16 0.20 0.21 0.12 0.04 0.03 0.02 0.02 0.04 0.08 0.10 0.07 0.04 0.03 0.02 0.02 0.04 0.04 0.06 0.08 0.07 0.05 0.02 0.00 0.00
0.01 0.00 0.00 0.00 0.00 0.00 0.00 0.00 0.07 0.38 0.22 0.17 0.13 0.17 0.25 0.10 0.10 0.18 0.20 0.21 0.27 0.20 0.15 0.12 0.09 0.07 0.10 0.13 0.15 0.17 0.17 0.13 0.07 0.08 0.10 0.11 0.11 0.09 0.06 0.03 0.01 0.00 0.00